This is the latest recevied weather packets stored in our database for station/object KI5MKI. If no packets are shown the sender has not sent any weather packets the latest 10 day(s).
| Time | Temp. | Humidity | Pressure | Rain* | Wind** | Luminosity | Snow |
|---|---|---|---|---|---|---|---|
| 1777856822 | 22.22° C | 49% | 1016.6 hPa | 0 mm | - | 4 W/m² | - |
| 1777856517 | 22.22° C | 49% | 1016.5 hPa | 0 mm | - | 6 W/m² | - |
| 1777856214 | 22.78° C | 47% | 1016.5 hPa | 0 mm | - | 9 W/m² | - |
| 1777855911 | 22.78° C | 47% | 1016.4 hPa | 0 mm | - | 13 W/m² | - |
| 1777855609 | 23.33° C | 45% | 1016.4 hPa | 0 mm | - | 19 W/m² | - |
| 1777855306 | 23.89° C | 45% | 1016.2 hPa | 0 mm | - | 24 W/m² | - |
| 1777855002 | 23.89° C | 44% | 1016.5 hPa | 0 mm | - | 28 W/m² | - |
| 1777854699 | 24.44° C | 43% | 1016.3 hPa | 0 mm | - | 32 W/m² | - |
| 1777854396 | 24.44° C | 42% | 1016.3 hPa | 0 mm | - | 42 W/m² | - |
| 1777854094 | 25° C | 40% | 1016.7 hPa | 0 mm | - | 51 W/m² | - |
| 1777853791 | 25° C | 42% | 1016.6 hPa | 0 mm | - | 61 W/m² | - |
| 1777853486 | 25° C | 42% | 1016.5 hPa | 0 mm | - | 75 W/m² | - |
| 1777853179 | 25.56° C | 40% | 1016.6 hPa | 0 mm | - | 91 W/m² | - |
| 1777852876 | 26.11° C | 40% | 1016.6 hPa | 0 mm | - | 104 W/m² | - |
| 1777852575 | 25.56° C | 39% | 1016.7 hPa | 0 mm | - | 118 W/m² | - |
| 1777852270 | 25.56° C | 39% | 1016.7 hPa | 0 mm | - | 131 W/m² | - |
| 1777851969 | 25.56° C | 39% | 1016.8 hPa | 0 mm | - | 148 W/m² | - |
| 1777851666 | 25.56° C | 37% | 1016.7 hPa | 0 mm | - | 161 W/m² | - |
| 1777851363 | 26.11° C | 37% | 1016.7 hPa | 0 mm | - | 177 W/m² | - |
| 1777851058 | 26.11° C | 37% | 1016.9 hPa | 0 mm | - | 191 W/m² | - |
| 1777850755 | 26.11° C | 36% | 1016.9 hPa | 0 mm | - | 206 W/m² | - |
| 1777850453 | 26.11° C | 38% | 1017 hPa | 0 mm | - | 229 W/m² | - |
| 1777850151 | 26.11° C | 35% | 1016.9 hPa | 0 mm | - | 249 W/m² | - |
| 1777849847 | 26.11° C | 36% | 1016.7 hPa | 0 mm | - | 269 W/m² | - |
| 1777849544 | 26.67° C | 35% | 1016.8 hPa | 0 mm | - | 292 W/m² | - |
* Rain latest hour (hover to see other rain measurements)
** Current wind speed in m/s (hover to see current wind gust speed)